Year,Month,Day,Hour,Minute,Value (Times are PST for temperature in C)
2012,04,23,14,38,15.00
2012,04,23,14,39,15.00
2012,04,23,14,40,15.00
2012,04,23,14,41,15.00
2012,04,23,14,42,15.00
2012,04,23,14,43,15.00
2012,04,23,14,44,15.00
2012,04,23,14,45,15.00
2012,04,23,14,46,15.00
2012,04,23,14,47,15.00
2012,04,23,14,48,15.00
2012,04,23,14,49,15.00
2012,04,23,14,50,15.00
2012,04,23,14,51,14.90
2012,04,23,14,52,14.80
2012,04,23,14,53,14.60
2012,04,23,14,54,14.50
2012,04,23,14,55,14.40
2012,04,23,14,56,14.30
2012,04,23,14,57,14.20
2012,04,23,14,58,14.10
2012,04,23,14,59,13.90
2012,04,23,15,00,13.80
2012,04,23,15,01,13.70
2012,04,23,15,02,13.70
2012,04,23,15,03,13.60
2012,04,23,15,04,13.60
2012,04,23,15,05,13.60
2012,04,23,15,06,13.50
2012,04,23,15,07,13.50
2012,04,23,15,08,13.50
2012,04,23,15,09,13.50
2012,04,23,15,10,13.40
2012,04,23,15,11,13.40
2012,04,23,15,12,13.40
2012,04,23,15,13,13.40
2012,04,23,15,14,13.40
2012,04,23,15,15,13.40
2012,04,23,15,16,13.40
2012,04,23,15,17,13.40
2012,04,23,15,18,13.40
2012,04,23,15,19,13.40
2012,04,23,15,20,13.40
2012,04,23,15,21,13.40
2012,04,23,15,22,13.40
2012,04,23,15,23,13.40
2012,04,23,15,24,13.30
2012,04,23,15,25,13.30
2012,04,23,15,26,13.30
2012,04,23,15,27,13.30
2012,04,23,15,28,13.30
2012,04,23,15,29,13.40
2012,04,23,15,30,13.40
2012,04,23,15,31,13.40
2012,04,23,15,32,13.50
2012,04,23,15,33,13.50
2012,04,23,15,34,13.50
2012,04,23,15,35,13.50
2012,04,23,15,36,13.50
2012,04,23,15,37,13.50
2012,04,23,15,38,13.50
2012,04,23,15,39,13.50
2012,04,23,15,40,13.60
2012,04,23,15,41,13.60
2012,04,23,15,42,13.70
2012,04,23,15,43,13.80
2012,04,23,15,44,13.90
2012,04,23,15,45,14.00
2012,04,23,15,46,14.10
2012,04,23,15,47,14.20
2012,04,23,15,48,14.30
2012,04,23,15,49,14.30
2012,04,23,15,50,14.40
2012,04,23,15,51,14.40
2012,04,23,15,52,14.40
2012,04,23,15,53,14.40
2012,04,23,15,54,14.40
2012,04,23,15,55,14.40
2012,04,23,15,56,14.40
2012,04,23,15,57,14.30
2012,04,23,15,58,14.30
2012,04,23,15,59,14.20
2012,04,23,16,00,14.10
2012,04,23,16,01,14.10
2012,04,23,16,02,14.00
2012,04,23,16,03,13.90
2012,04,23,16,04,13.90
2012,04,23,16,05,13.90
2012,04,23,16,06,13.90
2012,04,23,16,07,13.90
2012,04,23,16,08,13.90
2012,04,23,16,09,14.00
2012,04,23,16,10,14.10
2012,04,23,16,11,14.20
2012,04,23,16,12,14.30
2012,04,23,16,13,14.30
2012,04,23,16,14,14.30
2012,04,23,16,15,14.30
2012,04,23,16,16,14.30
2012,04,23,16,17,14.30
2012,04,23,16,18,14.30
2012,04,23,16,19,14.30
2012,04,23,16,20,14.30
2012,04,23,16,21,14.40
2012,04,23,16,22,14.40
2012,04,23,16,23,14.40
2012,04,23,16,24,14.40
2012,04,23,16,25,14.40
2012,04,23,16,26,14.40
2012,04,23,16,27,14.30
2012,04,23,16,28,14.30
2012,04,23,16,29,14.30
2012,04,23,16,30,14.20
2012,04,23,16,31,14.20
2012,04,23,16,32,14.20
2012,04,23,16,33,14.20
2012,04,23,16,34,14.20
2012,04,23,16,35,14.10
2012,04,23,16,36,14.10
2012,04,23,16,37,14.10
2012,04,23,16,38,14.10
2012,04,23,16,39,14.20
2012,04,23,16,40,14.20
2012,04,23,16,41,14.20
2012,04,23,16,42,14.30
2012,04,23,16,43,14.30
2012,04,23,16,44,14.30
2012,04,23,16,45,14.40
2012,04,23,16,46,14.40
2012,04,23,16,47,14.40
2012,04,23,16,48,14.50
2012,04,23,16,49,14.50
2012,04,23,16,50,14.60
2012,04,23,16,51,14.60
2012,04,23,16,52,14.60
2012,04,23,16,53,14.60
2012,04,23,16,54,14.60
2012,04,23,16,55,14.70
2012,04,23,16,56,14.70
2012,04,23,16,57,14.70
2012,04,23,16,58,14.70
2012,04,23,16,59,14.70
2012,04,23,17,00,14.70
2012,04,23,17,01,14.70
2012,04,23,17,02,14.70
2012,04,23,17,03,14.70
2012,04,23,17,04,14.70
2012,04,23,17,05,14.70
2012,04,23,17,06,14.70
2012,04,23,17,07,14.70
2012,04,23,17,08,14.70
2012,04,23,17,09,14.70
2012,04,23,17,10,14.70
2012,04,23,17,11,14.70
2012,04,23,17,12,14.70
2012,04,23,17,13,14.70
2012,04,23,17,14,14.70
2012,04,23,17,15,14.70
2012,04,23,17,16,14.70
2012,04,23,17,17,14.70
2012,04,23,17,18,14.60
2012,04,23,17,19,14.60
2012,04,23,17,20,14.60
2012,04,23,17,21,14.50
2012,04,23,17,22,14.50
2012,04,23,17,23,14.40
2012,04,23,17,24,14.40
2012,04,23,17,25,14.30
2012,04,23,17,26,14.30
2012,04,23,17,27,14.30
2012,04,23,17,28,14.30
2012,04,23,17,29,14.20
2012,04,23,17,30,14.20
2012,04,23,17,31,14.20
2012,04,23,17,32,14.20
2012,04,23,17,33,14.20
2012,04,23,17,34,14.20
2012,04,23,17,35,14.20
2012,04,23,17,36,14.20
2012,04,23,17,37,14.20
2012,04,23,17,38,14.20
2012,04,23,17,39,14.20
2012,04,23,17,40,14.20
2012,04,23,17,41,14.20
2012,04,23,17,42,14.20
2012,04,23,17,43,14.20
2012,04,23,17,44,14.20
2012,04,23,17,45,14.20
2012,04,23,17,46,14.20
2012,04,23,17,47,14.20
2012,04,23,17,48,14.20
2012,04,23,17,49,14.20
2012,04,23,17,50,14.20
2012,04,23,17,51,14.20
2012,04,23,17,52,14.20
2012,04,23,17,53,14.20
2012,04,23,17,54,14.20
2012,04,23,17,55,14.20
2012,04,23,17,56,14.20
2012,04,23,17,57,14.20
2012,04,23,17,58,14.20
2012,04,23,17,59,14.20
2012,04,23,18,00,14.20
2012,04,23,18,01,14.20
2012,04,23,18,02,14.20
2012,04,23,18,03,14.20
2012,04,23,18,04,14.20
2012,04,23,18,05,14.10
2012,04,23,18,06,14.10
2012,04,23,18,07,14.10
2012,04,23,18,08,14.10
2012,04,23,18,09,14.10
2012,04,23,18,10,14.10
2012,04,23,18,11,14.10
2012,04,23,18,12,14.10
2012,04,23,18,13,14.10
2012,04,23,18,14,14.10
2012,04,23,18,15,14.10
2012,04,23,18,16,14.10
2012,04,23,18,17,14.10
2012,04,23,18,18,14.10
2012,04,23,18,19,14.10
2012,04,23,18,20,14.10
2012,04,23,18,21,14.10
2012,04,23,18,22,14.10
2012,04,23,18,23,14.00
2012,04,23,18,24,14.00
2012,04,23,18,25,14.00
2012,04,23,18,26,13.90
2012,04,23,18,27,13.90
2012,04,23,18,28,13.90
2012,04,23,18,29,13.90
2012,04,23,18,30,13.80
2012,04,23,18,31,13.80
2012,04,23,18,32,13.80
2012,04,23,18,33,13.80
2012,04,23,18,34,13.80
2012,04,23,18,35,13.80
2012,04,23,18,36,13.80
2012,04,23,18,37,13.70
2012,04,23,18,38,13.70
2012,04,23,18,39,13.70
2012,04,23,18,40,13.70
2012,04,23,18,41,13.70
2012,04,23,18,42,13.70
2012,04,23,18,43,13.70
2012,04,23,18,44,13.70
2012,04,23,18,45,13.70
2012,04,23,18,46,13.60
2012,04,23,18,47,13.60
2012,04,23,18,48,13.60
2012,04,23,18,49,13.60
2012,04,23,18,50,13.60
2012,04,23,18,51,13.60
2012,04,23,18,52,13.60
2012,04,23,18,53,13.60
2012,04,23,18,54,13.60
2012,04,23,18,55,13.60
2012,04,23,18,56,13.60
